Location: Moulis
(42.9609°N, 1.0909°E)
Time: 07:21:15
(UTC+00:00)

Cosmos 1602 Rocket - Pass Details

Date: 11 December 2025
Orbit: 596 x 626 km, 82.5° (Epoch: 13 January)

Event Time Altitude Azimuth Distance (km) Brightness Sun altitude
Rises 16:48:18 0° 356° (N) 2,897 6.8 -5.2°
Reaches altitude 10° 16:50:36 10° 2° (N) 1,982 5.9 -5.6°
Maximum altitude 16:54:52 50° 78° (ENE) 779 3.7 -6.3°
Drops below altitude 10° 16:59:04 10° 155° (SSE) 1,948 6.1 -7.0°
Sets 17:01:19 0° 160° (SSE) 2,842 7.0 -7.3°
